Погода в Ефремове

Погода в Ефремове : погода сейчас, прогноз погоды и архив. Всё, что Вы хотите узнать о погоде в Ефремове!

Поиск расширенной информации на нашем сайте:

Другие новости

Новости СМИ2

Главная страница сайта

Новости сайта

02.10.2013

Напоминаем, что на нашем новом сайте вы можете получить высокодетализированные прогнозы погоды по пунктам России, СНГ и мира (включающие важные для авиации метеовеличины, такие как направление и скорость ветра, видимость, явления погоды, количество и форма облачности, нижняя и верхняя граница облачности), а также ознакомиться с разнообразными материалами по авиационной метеорологии и подборкой полезных ссылок на эту тему.

Сайт Метеоцентр.Азия посвящён разработке технологий оптимизации авиаметеорологического обслуживания, включая проектирование и перспективное создание нескольких автоматизированных авиаметеорологических систем:
- система выпуска высокодетальных прогностических карт явлений погоды для нижнего воздушного пространства по России и ближнему зарубежью;
- система верификации прогнозов TAF (выпускаемых синоптиками официальных АМСГ РФ и ближнего зарубежья) и AUTOTAF (выпускаемых сайтом Метеоцентр.Азия) - выявление ошибок, онлайн-сопоставление с фактической погодой METAR, автоматическое внесение коррективов в прогнозы при резком отклонении фактической погоды от прогноза, подсчёт оправдываемости прогнозов по элементам и в целом;
- система обработки, анализа и отображения авиаметеорологической информации для применения провайдерами метеорологической информации.

Рекомендуем: купить семена расторопши

Погода в Ефремове - сегодня

Время (UTC), дата Ветер
(°,м/с) 
Видим.   Явления Облачность Т
(°С)
Тd
(°С)
f(%) Тe
(°С)
Pmin
(гПа)
dP
(гПа)
Po
(мм)
O2
(г/м3)
Тmin Tmax R s Состояние
почвы
00 24.03.17 тихо ()   10 км    ясно 
+0.4 -1.6 86 1026.3  0.1  749  302           
03 24.03.17 180 (Ю) 10 км    3/0 средняя 
[Ac trans]
-1 -1.6 96 1025.6  -0.8  748  303  -1.2         
06 24.03.17 180 (Ю) 10 км    9/0 средняя 
[Ac trans]
+3.1 -0.6 77 +4  1024.3  -0.8  748  298  -1.2         
09 24.03.17 200 (Ю) 10 км    10/0 средняя 
[Ac As]
+7.7 +0.1 59 +8  1021.5  -2.3  746  292           
12 24.03.17 150 (ЮВ) 4000 м  слаб. дождь  9/9 600 м 
[Sc]
+6.2 -0.1 64 +5  1017.5  -4  743  293           
15 24.03.17 090 (В) 1{10}  4000 м  слаб. дождь  10/6 300 м средняя 
[Frnb|As op]
+2.8 +2.3 97 +4  1014.2  -3.6  740  295         
18 24.03.17 330 (СЗ) 10 км  в посл. час дождь  10/10 300 м 
[St]
+1.8 +1.8 100 1013.4  -0.9  740  296    +7.9     
21 24.03.17 300 (СЗ) 10 км    10/10 300 м 
[St]
+2.2 +1.9 98 +1  1013.4  0.1  740  295           
00 25.03.17 330 (СЗ) 4{11}  10 км    10/10 300 м 
[St]
+0.2 -1.6 88 -2  1014.8  1.1  741  298           
03 25.03.17 310 (СЗ) 10 км    8/0 средняя 
[Ac trans]
-0.7 -1.8 92 -3  1015.5  0.7  741  300  -0.7       
06 25.03.17 320 (СЗ) 10 км    ясно 
+0.4 -3.8 73 -1  1016.6  1.1  742  299  -0.9         
09 25.03.17 320 (СЗ) 5{12}  10 км    6/6 600 м 
[Cu hum]
+1.9 -7.4 50 -1  1016.4  0.1  742  298           
12 25.03.17 310 (СЗ) 4{10}  10 км    6/6 600 м 
[Sc]
+3.3 -6.6 48 +1  1015.6  -0.7  741  296           
15 25.03.17 320 (СЗ) 10 км    6/6 600 м 
[Sc]
+3.5 -6.8 47 +3  1015.1  -0.5  741  296           
18 25.03.17 250 (З) 10 км    ясно 
+0.4 -6.2 61 +1  1015.7  0.3  741  299    +4       
21 25.03.17 270 (З) 10 км    ясно 
-0.8 -6.8 64 1016.1  0.3  742  300           
00 26.03.17 тихо ()   10 км    ясно 
-2.8 -6.3 77 -3  1017  0.6  742  303           
03 26.03.17 250 (З) 10 км    8/0 верхняя 
[Ci]
-3.2 -6.3 79 -3  1017.5  0.5  742  303  -3.7         
06 26.03.17 тихо ()   10 км    8/0 верхняя 
[Cs]
+0.9 -5.8 61 +1  1018.3  1.2  743  299  -3.7         
09 26.03.17 010 (С) 10 км    8/8 600 м 
[Cu hum]
+5.6 -9 34 +6  1018  0.2  743  294           
12 26.03.17 320 (СЗ) 10 км    8/8 600 м 
[Sc diur, vesp]
+6.1 -9.5 32 +6  1016.7  -1.3  742  293           
15 26.03.17 250 (З) 10 км    8/8 600 м 
[Sc]
+4.9 -9 36 +5  1015.2  -1.6  741  294           
18 26.03.17 250 (З) 10 км    ясно 
+1.7 -6.1 56 1013.8  -1.7  740  297    +7.1       
21 26.03.17 240 (ЮЗ) 10 км    8/0 средняя 
[Ac trans]
+1.2 -5.4 61 -1  1010.9  -2.8  738  297           
00 27.03.17 250 (З) 4{11}  10 км    10/0 средняя 
[Ac As]
+1.1 -5.8 60 -1  1005.1  -5.6  734  295           
Время (UTC), дата Ветер
(°,м/с) 
Видим.   Явления Облачность Т
(°С)
Тd
(°С)
f(%) Тe
(°С)
Pmin
(гПа)
dP
(гПа)
Po
(мм)
O2
(г/м3)
Тmin Tmax R s Состояние
почвы

Для получения пояснительной информации подведите курсор к названию столбца.

ПОГОДА в Ефремове - архив

Всё, что Вы хотите узнать о погоде в Ефремове - удобно и подробно!

Выберите нужную дату (начиная с 1 января 2015* года) и нажмите кнопку "Найти".
Будут отображены архивные сводки погоды по пункту Ефремов, начиная с указанной даты.


Отображать данные в формате CSV (для использования в таблицах Excel)


Внимание! Наш архив погоды предназначен исключительно для личного некоммерческого использования в познавательных целях. Если Вам необходимы официальные справки о состоянии погоды (для производственных, юридических, коммерческих и т.п. целей), обращайтесь в органы Росгидромета.

*Примечание: данная дата относится к архиву по метеостанциям СССР (Россия, СНГ, Балтия).
Архив по метеостанциям Зарубежной Европы и Азии (кроме Китая) хранится 10 дней, по другим регионам земного шара (Китай, Африка, Америка, Австралия, Океания) - 1 день.

Ефремов - район местоположения метеостанции


Название, широта, долгота, высота метеостанции:
Ефремов 53.2°ш. 38.1°д. 215 м над ур. моря [Российская Федерация]

Дополнительная информация

В oтличие oт бoльшинства пoгoдных сайтoв мы публикуем пoдрoбную метеoинфoрмацию в детальнoм прoфессиoнальнoм фoрмате.

Характеристики температуры и влажнoсти вoздуха измеряются на высoте 2 м в тени вдали oт зданий и деревьев.
Скoрoсть ветра измеряется на высoте 10 м (на урoвне рoста челoвека скoрoсть ветра ниже в 1.5-2 раза). Если метеoстанция нахoдится в гoрoде или в лесу, тo скoрoсть ветра занижена на 2-4 м/с пo сравнению с oткрытым местoм. Скoрoсть ветра над акватoриями крупных рек и oзёр, а также на вершинах хoлмoв на 2-5 м/с выше, чем в oбычных услoвиях.
Атмoсфернoе давление в разных тoчках местнoсти мoжет значительнo oтличаться oт давления на метеoстанции, в зависимoсти oт услoвий рельефа (при пoдъёме на 10 м давление пoнижается примернo на 1 мм рт.ст.).